Voltar ao catálogo

GLOBALSTAR M058

AtivoComunicaçõesLEO
NORAD 25907·PAYLOAD·🇺🇸 United States

Lançado Sep 22, 1999 de Baikonur Cosmodrome

Loading…

Próximas Passagens (próximas 24 horas)

TLE

AtualizadoSource: Space-Track

Época: Sep 14, 2026, 22:15 UTC

1 25907U 99049A   26257.92773640 -.00000119  00000-0 -46488-3 0  9990
2 25907  51.9968 334.8758 0002694  80.2710 279.8429 11.93217573595829

Acompanhe GLOBALSTAR M058 em tempo real com AllMySat

Download on the App Store